SL-16 DEB, 22293

Orbit data source: Space-Track

SL-16 DEB, 22293 is space debris in LEO originally from a launch on Fri, 25 Dec 1992 UTC launched from the Tyuratam Missile And Space Complex (TTMTR). Debris objects in space refer to the collection of defunct objects orbiting the Earth. Examples of debris include non-operational satellites, rocket bodies, and fragments generated from explosions, collisions, or faulty payload assembly.

Loading next visibility...
Identifier
22293, 1992-093H
Orbit
LEO
Country
Flag of CISCIS
Related business
Manufacturer
Yuzhnoe
Mission
Spacecraft
Bus & Motor
SEP MOTOR COVER, Unknown motor
Mass
~0 kg wet, ~1 kg dry
Launch date (UTC)
1992-12-25 (33 years ago)
Launch vehicle
Unknown
Launch site
Tyuratam Missile And Space Complex (TTMTR)
Object type
Payload
Rocket body
Debris
Shape & HBR
Unknown shape, 0.2 m
Radar Cross Section
Small (<0.1 m²)

Expand to show TLE details & history
Last TLE update: 5 hours ago

TLE from 5 hours ago
0 SL-16 DEB
1 22293U 92093H   25299.14934878  .00000125  00000-0  15427-3 0  9992
2 22293  71.0557 188.9314 0198249 228.3087 130.0905 13.74634793640445
Epoch: 2025-10-26T03:35Z
TLE epoch observation values (Epoch: 2025-10-26T03:35:03.734Z)
Latitude
-0.00009°
Longitude
100.39612°
Altitude
1,080.991 km
Speed
7.264 km/s
True Right ascension
12h 35m 43s
True Declination
0° 00' 00"
Sunlit
Object was in daylight at epoch
Visualization orbit readout
Latitude
Unknown
Longitude
Unknown
Altitude
Unknown
Speed
Unknown
Apparent Right ascension
Unknown
Apparent Declination
Unknown
Sunlit
N/A
Visualization observer readout
Local Sidereal Time
03:27:51
Azimuth
Unknown
Elevation
Unknown
Doppler factor
Unknown
Orbital elements
Apogee altitude
1,126.829 km
Perigee altitude
835.044 km
Semi-major axis
7,359.073 km
Eccentricity
0.01982
Inclination
71.0557°
RAAN
188.9314°
Arg. of periapsis
228.3087°
True anomaly
131.80089°
Mean anomaly
130.0905°
Eccentric anomaly
130.94843°
Mean motion
3.43802 °/min
Orbital period
104.71 mins
BSTAR
0.00015427
Loading maneuver chart data...
Computing Atmospheric mass density...

Documentation

Showing up to 5 results
|